This demonstration page uses our WeatherBlox Daily Observations layout. Learn more.

Left ArrowRight Arrow

39.29038, -76.61219

Hourly Observations for February 23, 2021

Temp ( °F °C ) Dew Point ( °F °C ) Humidity (%) Winds ( mph kmh ) Pressure ( in mb ) Visibility ( mi km ) Precip ( " mm )
12:54 am 00:54 Mostly Cloudy 35 1.7 28 -2.2 76 76 W 8 13 29.85 1011 10 16 N/A
1:54 am 01:54 Mostly Cloudy 38 3.3 29 -1.7 70 70 W 12 19 29.84 1011 10 16 N/A
2:54 am 02:54 Mostly Cloudy 39 3.9 28 -2.2 65 65 WSW 12 19 29.83 1010 10 16 N/A
3:54 am 03:54 Mostly Clear 37 2.8 27 -2.8 67 67 W 7 11 29.80 1009 10 16 N/A
4:54 am 04:54 Partly Cloudy 38 3.3 27 -2.8 65 65 SW 7 11 29.80 1009 10 16 N/A
5:54 am 05:54 Partly Cloudy 37 2.8 27 -2.8 67 67 SSW 6 9 29.80 1009 10 16 N/A
6:54 am 06:54 Mostly Cloudy 35 1.7 29 -1.7 78 78 SSW 6 9 29.79 1009 10 16 N/A
7:54 am 07:54 Mostly Cloudy 38 3.3 29 -1.7 70 70 SW 7 11 29.78 1009 10 16 N/A
8:54 am 08:54 Mostly Cloudy 38 3.3 29 -1.7 70 70 SSW 6 9 29.75 1008 10 16 N/A
9:54 am 09:54 Mostly Cloudy 42 5.6 29 -1.7 60 60 SW 9 15 29.72 1007 10 16 N/A
10:54 am 10:54 Mostly Cloudy 48 8.9 29 -1.7 48 48 SW 21 33 29.72 1006 10 16 N/A
11:54 am 11:54 Mostly Cloudy 50 10 30 -1.1 46 46 SW 16 26 29.70 1006 10 16 N/A
12:54 pm 12:54 Mostly Cloudy 53 11.7 31 -0.6 43 43 WSW 13 20 29.69 1005 10 16 N/A
1:54 pm 13:54 Partly Cloudy 54 12.2 33 0.6 45 45 W 17 28 29.67 1005 10 16 N/A
2:54 pm 14:54 Mostly Cloudy 55 12.8 35 1.7 47 47 W 23 37 29.69 1005 10 16 N/A
3:54 pm 15:54 Partly Cloudy 55 12.8 33 0.6 44 44 W 23 37 29.72 1007 10 16 N/A
4:54 pm 16:54 Partly Cloudy 53 11.7 32 undefined 45 45 WNW 20 31 29.77 1008 10 16 N/A
5:54 pm 17:54 Mostly Clear 50 10 31 -0.6 48 48 W 12 19 29.79 1009 10 16 N/A
6:54 pm 18:54 Mostly Clear 49 9.4 29 -1.7 46 46 W 10 17 29.85 1011 10 16 N/A
7:54 pm 19:54 Clear 47 8.3 29 -1.7 50 50 W 12 19 29.87 1012 10 16 N/A
8:54 pm 20:54 Clear 46 7.8 29 -1.7 51 51 W 10 17 29.91 1013 10 16 N/A
9:54 pm 21:54 Clear 44 6.7 27 -2.8 51 51 N N/A 29.95 1014 10 16 N/A
10:54 pm 22:54 Clear 41 5 28 -2.2 60 60 W 9 15 29.98 1015 10 16 N/A
11:54 pm 23:54 Clear 44 6.7 27 -2.8 51 51 WSW 6 9 29.99 1016 10 16 N/A

Powered by AerisWeather